Regional Weather Roundup
Issued by NWS

Home | Current Version | Previous Version | Graphics & Text | Print | Product List | Glossary On
Versions: 1 2 3 4 5 6 7 8 9 10 11 12 13 14 15 16 17 18 19 20 21 22 23 24 25 26 27 28 29 30 31 32 33 34 35 36 37 38 39 40 41 42 43 44 45 46 47 48 49 50
000
ASUS43 KOAX 181202
RWRNE

WEATHER ROUNDUP FOR NEBRASKA
NATIONAL WEATHER SERVICE OMAHA NE
700 AM CDT WED OCT 18 2017

NOTES: SATELLITE DATA IS BEING USED TO AUGMENT CLOUD COVER ABOVE
       12000 FEET.
       "FAIR" INDICATES FEW OR NO CLOUDS BELOW 12,000 FEET WITH NO
       SIGNIFICANT WEATHER AND/OR OBSTRUCTIONS TO VISIBILITY.


NEZ001>004-019>022-054>056-181300-
NEBRASKA PANHANDLE

CITY           SKY/WX    TMP DP  RH WIND       PRES   REMARKS
SCOTTSBLUFF    CLOUDY    53  24  32 W15       29.96R
6HR MIN TEMP:  39; 6HR MAX TEMP:  53;

ALLIANCE       CLOUDY    43  23  45 N5        29.97R
6HR MIN TEMP:  35; 6HR MAX TEMP:  52;

CHADRON        PTCLDY    44  22  41 SW7       29.93R
6HR MIN TEMP:  39; 6HR MAX TEMP:  59;

GORDON         FAIR      39  28  63 W8        29.92R WCI  34
6HR MIN TEMP:  37; 6HR MAX TEMP:  55;

KIMBALL        CLOUDY    51  21  31 W12       30.04R
SIDNEY         CLOUDY    35  25  66 W10       30.01R WCI  27
6HR MIN TEMP:  35; 6HR MAX TEMP:  47;

$$

NEZ057>060-069>072-079>082-181300-
SOUTHWEST NEBRASKA

CITY           SKY/WX    TMP DP  RH WIND       PRES   REMARKS
NORTH PLATTE   MOCLDY    42  36  79 W5        29.92R
6HR MIN TEMP:  42; 6HR MAX TEMP:  59;

IMPERIAL       PTCLDY    46  29  51 W8        29.96R
6HR MIN TEMP:  42; 6HR MAX TEMP:  48;

LEXINGTON      MOCLDY    50  38  63 SW6       29.90S
MCCOOK         CLOUDY    43  35  73 SW9       29.93R
6HR MIN TEMP:  42; 6HR MAX TEMP:  54;

OGALLALA       PTCLDY    39  31  74 W6        29.95S WCI  34
$$

NEZ005>010-023>029-035>040-094-181300-
NORTH CENTRAL NEBRASKA

CITY           SKY/WX    TMP DP  RH WIND       PRES   REMARKS
VALENTINE      PTCLDY    45  27  49 SW10      29.83R
6HR MIN TEMP:  44; 6HR MAX TEMP:  54;

AINSWORTH      CLOUDY    54  30  39 W10       29.83S
BROKEN BOW     CLOUDY    54  35  48 W10       29.87R
6HR MIN TEMP:  44; 6HR MAX TEMP:  56;

O`NEILL        CLOUDY    51  40  67 SW8       29.81S
ORD            CLOUDY    44  39  82 CALM      29.84S
6HR MIN TEMP:  43; 6HR MAX TEMP:  53;

THEDFORD       CLOUDY    51  29  42 NW7       29.89R
$$

NEZ041-046>049-061>064-073>077-083>087-181300-
SOUTH CENTRAL NEBRASKA

CITY           SKY/WX    TMP DP  RH WIND       PRES   REMARKS
GRAND ISLAND   CLOUDY    49  44  83 S7        29.90S
6HR MIN TEMP:  48; 6HR MAX TEMP:  59;

AURORA         CLEAR     46  42  85 S8        29.91S
HASTINGS       CLOUDY    45  40  82 S6        29.92S
6HR MIN TEMP:  45; 6HR MAX TEMP:  57;

HEBRON         CLEAR     44  42  93 CALM      29.95F
HOLDREGE       CLOUDY    47  42  81 SW7       29.92R
KEARNEY        CLOUDY    47  41  80 SW10      29.91S
YORK           CLEAR     46  45  93 S6        29.92F
$$

NEZ011>018-030>034-042>045-181300-
NORTHEAST NEBRASKA

CITY           SKY/WX    TMP DP  RH WIND       PRES   REMARKS
NORFOLK        CLEAR     51  44  77 S8        29.86R
6HR MIN TEMP:  47; 6HR MAX TEMP:  54;

ALBION         CLOUDY    49  44  81 S7        29.87S
BLAIR          CLEAR     50  45  84 S9        29.92F
COLUMBUS       CLEAR     52  43  71 S12       29.91R
FREMONT        CLEAR     53  45  74 S9        29.92S
TEKAMAH        CLEAR     48  44  86 SE7       29.91S
6HR MIN TEMP:  44; 6HR MAX TEMP:  49;

WAYNE          CLEAR     50  47  88 S10       29.85S
$$

NEZ050>053-065>068-078-088>093-181300-
SOUTHEAST NEBRASKA

CITY           SKY/WX    TMP DP  RH WIND       PRES   REMARKS
LINCOLN        CLEAR     50  44  80 S5        29.95F
6HR MIN TEMP:  49; 6HR MAX TEMP:  55;

OMAHA EPPLEY   CLEAR     50  44  80 S12       29.94S
6HR MIN TEMP:  49; 6HR MAX TEMP:  52;

BEATRICE       CLEAR     51  46  82 S10       29.96F
FALLS CITY     CLEAR     50  44  80 S7        29.98S
6HR MIN TEMP:  50; 6HR MAX TEMP:  55;

NEBRASKA CITY  CLEAR     48  46  94 S7        29.98R
PLATTSMOUTH    CLEAR     49  46  90 S8        29.96R
$$

NEZ044-045-051>053-067-181300-
OMAHA AREA

CITY           SKY/WX    TMP DP  RH WIND       PRES   REMARKS
OMAHA EPPLEY   CLEAR     50  44  80 S12       29.94S
6HR MIN TEMP:  49; 6HR MAX TEMP:  52;

BLAIR          CLEAR     50  45  84 S9        29.92F
FREMONT        CLEAR     53  45  74 S9        29.92S
MILLARD        CLEAR     48  45  88 SE6       29.94F
OFFUTT AFB     CLEAR     42  41  95 SE6       29.95S
PLATTSMOUTH    CLEAR     49  46  90 S8        29.96R
WAHOO          FAIR      46  43  91 S6        29.92F
$$




USA.gov is the U.S. government's official web portal to all federal, state and local government web resources and services.